Weather History for Canadian, TX

Change the Weather History Date:

Monday, January 21, 2013

  Actual Average (KPPA) Record (KPPA)
Temperature  
Mean Temperature 31 °F -  
Max Temperature 41 °F 49 °F 82 °F (1986)
Min Temperature 21 °F 23 °F 3 °F (1984)
Degree Days  
Heating Degree Days 34    
Moisture  
Dew Point 18 °F    
Average Humidity 68    
Maximum Humidity 86    
Minimum Humidity 40    
Precipitation  
Precipitation 0.00 in - - ()
Sea Level Pressure  
Sea Level Pressure 30.32 in    
Wind  
Wind Speed 6 mph (NNE)    
Max Wind Speed 12 mph    
Max Gust Speed -    
Visibility 10 miles    
Events      
Averages and records for this station are not official NWS values.
T = Trace of Precipitation, MM = Missing Value Source: NWS Daily Summary

Daily Weather History Graph

Daily Weather History Graph

Search for Another Location

Airport:

Trip Planner

Search our weather history database for the weather conditions in past years. The results will help you decide how hot, cold, wet, or windy it might be!

Date:

Astronomy

Jan. 21, 2013 Rise Set
Actual Time 7:48 AM CST 5:57 PM CST
Civil Twilight 7:21 AM CST 6:25 PM CST
Nautical Twilight 6:50 AM CST 6:56 PM CST
Astronomical Twilight 6:19 AM CST 7:26 PM CST
Moon 1:39 PM CST (1/21) 3:18 AM CST (1/21)
Length of Visible Light 11h 03m
Length of Day
10h 08m
Waxing Gibbous, 75% of the Moon is Illuminated
Jan 21
Waxing Gibbous
Jan 26
Full
Feb 3
Last Quarter
Feb 10
New
Feb 17
First Quarter

Hourly Weather History & Observations

Time (CST) Temp. Windchill Dew Point Humidity Pressure Visibility Wind Dir Wind Speed Gust Speed Precip Events Conditions
12:15 AM 32.0 °F 23.0 °F 23.0 °F 69% 30.31 in 10.0 mi NE 11.5 mph - N/A   Clear
12:35 AM 30.2 °F 21.3 °F 21.2 °F 69% 30.32 in 10.0 mi NE 10.4 mph - N/A   Clear
12:55 AM 30.2 °F 21.3 °F 21.2 °F 69% 30.32 in 10.0 mi NE 10.4 mph - N/A   Clear
1:15 AM 30.2 °F 24.3 °F 21.2 °F 69% 30.33 in 10.0 mi NNE 5.8 mph - N/A   Clear
1:35 AM 28.4 °F 21.2 °F 21.2 °F 74% 30.33 in 10.0 mi NNE 6.9 mph - N/A   Clear
1:55 AM 28.4 °F 22.2 °F 21.2 °F 74% 30.33 in 10.0 mi North 5.8 mph - N/A   Clear
2:15 AM 28.4 °F 21.2 °F 21.2 °F 74% 30.33 in 10.0 mi NNE 6.9 mph - N/A   Clear
2:35 AM 26.6 °F 19.1 °F 21.2 °F 80% 30.33 in 10.0 mi NNE 6.9 mph - N/A   Clear
2:55 AM 26.6 °F 20.0 °F 21.2 °F 80% 30.33 in 10.0 mi NNE 5.8 mph - N/A   Clear
3:15 AM 26.6 °F 19.1 °F 19.4 °F 74% 30.33 in 10.0 mi NNE 6.9 mph - N/A   Clear
3:35 AM 26.6 °F 19.1 °F 19.4 °F 74% 30.33 in 10.0 mi NNE 6.9 mph - N/A   Clear
3:55 AM 24.8 °F 17.9 °F 19.4 °F 80% 30.33 in 10.0 mi NNE 5.8 mph - N/A   Clear
4:15 AM 24.8 °F 16.9 °F 19.4 °F 80% 30.33 in 10.0 mi NNE 6.9 mph - N/A   Clear
4:35 AM 24.8 °F 19.1 °F 19.4 °F 80% 30.33 in 10.0 mi NNE 4.6 mph - N/A   Clear
4:55 AM 23.0 °F 18.4 °F 19.4 °F 86% 30.33 in 10.0 mi NNE 3.5 mph - N/A   Clear
5:15 AM 23.0 °F 18.4 °F 19.4 °F 86% 30.33 in 10.0 mi North 3.5 mph - N/A   Clear
5:55 AM 23.0 °F 15.8 °F 19.4 °F 86% 30.33 in 10.0 mi NNE 5.8 mph - N/A   Clear
6:15 AM 23.0 °F 15.8 °F 17.6 °F 80% 30.34 in 10.0 mi North 5.8 mph - N/A   Clear
6:35 AM 23.0 °F 17.0 °F 17.6 °F 80% 30.34 in 10.0 mi North 4.6 mph - N/A   Clear
6:55 AM 21.2 °F 14.9 °F 17.6 °F 86% 30.35 in 10.0 mi North 4.6 mph - N/A   Clear
7:15 AM 21.2 °F 16.4 °F 17.6 °F 86% 30.36 in 10.0 mi North 3.5 mph - N/A   Clear
7:35 AM 21.2 °F 16.4 °F 17.6 °F 86% 30.37 in 10.0 mi North 3.5 mph - N/A   Clear
7:55 AM 21.2 °F 16.4 °F 17.6 °F 86% 30.38 in 10.0 mi North 3.5 mph - N/A   Clear
8:15 AM 21.2 °F 16.4 °F 15.8 °F 80% 30.38 in 10.0 mi North 3.5 mph - N/A   Clear
8:35 AM 23.0 °F - 17.6 °F 80% 30.38 in 10.0 mi Calm Calm - N/A   Clear
8:55 AM 23.0 °F 17.0 °F 15.8 °F 74% 30.38 in 10.0 mi North 4.6 mph - N/A   Clear
9:15 AM 24.8 °F 17.9 °F 15.8 °F 69% 30.39 in 10.0 mi North 5.8 mph - N/A   Clear
9:35 AM 24.8 °F 20.5 °F 14.0 °F 64% 30.40 in 10.0 mi NNE 3.5 mph - N/A   Clear
9:55 AM 26.6 °F - 14.0 °F 59% 30.40 in 10.0 mi Calm Calm - N/A   Clear
10:15 AM 26.6 °F - 10.4 °F 51% 30.40 in 10.0 mi Calm Calm - N/A   Clear
10:35 AM 28.4 °F - 8.6 °F 43% 30.40 in 10.0 mi Calm Calm - N/A   Clear
10:55 AM 28.4 °F - 8.6 °F 43% 30.40 in 10.0 mi Calm Calm - N/A   Clear
11:15 AM 30.2 °F - 10.4 °F 44% 30.40 in 10.0 mi Calm Calm - N/A   Clear
11:35 AM 30.2 °F - 8.6 °F 40% 30.39 in 10.0 mi Calm Calm - N/A   Clear
11:55 AM 32.0 °F 28.7 °F 10.4 °F 41% 30.38 in 10.0 mi ENE 3.5 mph - N/A   Clear
12:15 PM 32.0 °F - 10.4 °F 41% 30.35 in 10.0 mi Calm Calm - N/A   Clear
12:35 PM 32.0 °F 28.7 °F 10.4 °F 41% 30.33 in 10.0 mi SW 3.5 mph - N/A   Clear
5:55 PM 41.0 °F 37.1 °F 21.2 °F 45% 30.18 in 10.0 mi SSE 5.8 mph - N/A   Clear
8:15 PM 32.0 °F 26.4 °F 21.2 °F 64% 30.19 in 10.0 mi WSW 5.8 mph - N/A   Clear
9:35 PM 32.0 °F 25.6 °F 21.2 °F 64% 30.19 in 10.0 mi SSW 6.9 mph - N/A   Clear
10:35 PM 32.0 °F 26.4 °F 21.2 °F 64% 30.19 in 10.0 mi SW 5.8 mph - N/A   Clear
10:55 PM 32.0 °F - 21.2 °F 64% 30.20 in 10.0 mi Calm Calm - N/A   Clear
11:15 PM 32.0 °F 25.6 °F 21.2 °F 64% 30.19 in 10.0 mi SSW 6.9 mph - N/A   Clear
11:35 PM 32.0 °F 26.4 °F 21.2 °F 64% 30.19 in 10.0 mi SW 5.8 mph - N/A   Clear
11:55 PM 32.0 °F 27.5 °F 21.2 °F 64% 30.19 in 10.0 mi WSW 4.6 mph - N/A   Clear